Regional Weather Roundup
Issued by NWS

Home | Current Version | Previous Version | Graphics & Text | Print | Product List | Glossary On
Versions: 1 2 3 4 5 6 7 8 9 10 11 12 13 14 15 16 17 18 19 20 21 22 23 24 25 26 27 28 29 30 31 32 33 34 35 36 37 38 39 40 41 42 43 44 45 46 47 48 49 50
583
ASUS43 KTOP 191508
RWRKS

WEATHER ROUNDUP FOR KANSAS
NATIONAL WEATHER SERVICE GOODLAND KS
900 AM CST SUN NOV 19 2017

NOTE:  "FAIR" INDICATES FEW OR NO CLOUDS BELOW 12,000 FEET WITH NO
SIGNIFICANT WEATHER AND/OR OBSTRUCTIONS TO VISIBILITY.

KSZ001>006-013>018-027>032-041>047-191600-
NORTHWEST KANSAS

CITY           SKY/WX    TMP DP  RH WIND       PRES   REMARKS
GOODLAND       CLOUDY    35  16  45 SW13      30.17F WCI  26
HAYS           SUNNY     31  23  72 CALM      30.25F
HILL CITY      SUNNY     30  22  72 W7        30.22F
RUSSELL        SUNNY     31  25  78 SW8       30.24S
$$

KSZ061>065-074>080-084>089-191600-
SOUTHWEST KANSAS

CITY           SKY/WX    TMP DP  RH WIND       PRES   REMARKS
DODGE CITY     SUNNY     34  18  52 S7        30.27R
ELKHART        SUNNY     40  25  55 SW9       30.23R
GARDEN CITY    CLOUDY    35  20  54 S10       30.23F WCI  27
GREAT BEND     SUNNY     33  24  69 SW5       30.28R
LIBERAL        SUNNY     34  18  52 SW13      30.27S WCI  25
PRATT          SUNNY     36  22  57 W8        30.30R
$$

KSZ066>073-081>083-090>101-191600-
SOUTHEAST KANSAS

CITY           SKY/WX    TMP DP  RH WIND       PRES   REMARKS
CHANUTE        SUNNY     38  31  76 CALM      30.33R
COFFEYVILLE    SUNNY     38  31  76 CALM      30.34R
HUTCHINSON     SUNNY     35  26  69 W6        30.29R
MEDICINE LODGE   N/A     34  25  69 CALM      30.32R
NEWTON         SUNNY     36  25  64 W3        30.30R
PARSONS        SUNNY     39  32  76 CALM      30.34R
WICHITA INTL   MOSUNNY   35  29  78 SW3       30.31R
WICHITA JABRA  SUNNY     38  25  59 SW5       30.30R
WICHITA MCCONL SUNNY     37  27  66 CALM      30.31R
WINFIELD       SUNNY     37  31  78 CALM      30.34R
$$

KSZ007>012-019>026-033>040-048>060-102>105-191600-
NORTHEAST KANSAS

CITY           SKY/WX    TMP DP  RH WIND       PRES   REMARKS
CONCORDIA      SUNNY     34  26  72 VRB3      30.23R
EMPORIA        SUNNY     37  30  75 S5        30.29R
LAWRENCE       SUNNY     34  29  82 CALM      30.30R
MANHATTAN      SUNNY     32  26  78 SW7       30.28R
MARYSVILLE     SUNNY     32  28  86 S5        30.24S
OLATHE IND     SUNNY     35  24  64 W3        30.30R
OLATHE EXE     SUNNY     35  24  64 CALM      30.29R
SALINA         SUNNY     34  25  69 SW7       30.28R
TOPEKA BILLARD SUNNY     35  31  85 CALM      30.29R
TOPEKA FORBES  SUNNY     36  30  79 SE3       30.28R
$$




USA.gov is the U.S. government's official web portal to all federal, state and local government web resources and services.